Regional Weather Roundup
Issued by NWS

Home | Current Version | Previous Version | Graphics & Text | Print | Product List | Glossary On
Versions: 1 2 3 4 5 6 7 8 9 10 11 12 13 14 15 16 17 18 19 20 21 22 23 24 25 26 27 28 29 30 31 32 33 34 35 36 37 38 39 40 41 42 43 44 45 46 47 48 49 50
000
ASUS43 KMKX 271000
RWRWI

WISCONSIN REGIONAL WEATHER ROUNDUP
NATIONAL WEATHER SERVICE MILWAUKEE/SULLIVAN WI
400 AM CST THU NOV 27 2014

NOTE: "FAIR" INDICATES FEW OR NO CLOUDS BELOW 12,000 FEET WITH NO
SIGNIFICANT WEATHER AND/OR OBSTRUCTIONS TO VISIBILITY.

WIZ001-002-006>008-014>016-023>028-271100-
NORTHWEST WISCONSIN

CITY           SKY/WX    TMP DP  RH WIND       PRES   REMARKS
SUPERIOR ARPT  CLEAR     -2  -8  78 NW8       30.48S WCI -17
ASHLAND        CLEAR      0  -3  87 W6        30.41S WCI -12
HAYWARD        CLEAR     -2  -6  83 W5        30.38S WCI -12
SIREN          CLEAR     -1  -6  78 N5        30.45S WCI -11
CUMBERLAND     CLEAR      0  -6  78 N13       30.38S WCI -18
RICE LAKE      CLEAR      2  -4  76 NW7       30.41R WCI -11
CHETEK         CLEAR      3  -3  79 MISG      30.39S
LADYSMITH      PTCLDY     5   1  84 NW10      30.36S WCI -10
EAU CLAIRE     PTCLDY     6  -2  69 NW13      30.39R WCI -10
MENOMONIE      CLEAR      6  -3  66 NW8       30.41R WCI  -6
NEW RICHMOND   CLEAR      2  -4  76 N8        30.44R WCI -12
OSCEOLA        CLEAR      3  -4  75 N8        30.48S WCI -11
$$

WIZ003>005-009-010-017-018-271100-
NORTH CENTRAL WISCONSIN

CITY           SKY/WX    TMP DP  RH WIND       PRES   REMARKS
MANITOWISH WTR LGT SNOW  10   7  88 N3        30.25S
ARBOR VITAE    LGT SNOW   6   4  89 NW5       30.25R WCI  -2
WOODRUFF       LGT SNOW   6   4  89 NW5       30.25R WCI  -2
RHINELANDER    CLOUDY    10   6  84 N6        30.24R WCI   0
EAGLE RIVER    LGT SNOW   8   4  84 N5        30.23R WCI   0
LAND O LAKES   LGT SNOW  10   6  86 N6        30.24S WCI   0
PHILLIPS       LGT SNOW   7   3  84 NW6       30.28S WCI  -3
TOMAHAWK       LGT SNOW  12   9  86 NW7       30.26R WCI   2
MEDFORD        FLURRIES  11   7  82 NW13      30.27R WCI  -4
MERRILL        FLURRIES  13   9  83 NW7       30.26R WCI   3
$$

WIZ029-030-035-036-043>047-271100-
CENTRAL WISCONSIN

CITY           SKY/WX    TMP DP  RH WIND       PRES   REMARKS
WAUSAU         FLURRIES  14  10  84 NW9       30.25R WCI   2
MOSINEE        FLURRIES  14  14 100 NW10      30.26S WCI   1
MARSHFIELD     CLOUDY    15   9  76 NW16      30.27S WCI  -1
STEVENS POINT  FLURRIES  15  11  86 NW9       30.26S WCI   3
WAUPACA        CLOUDY    23  18  81 W8        30.26R WCI  14
WAUTOMA        NOT AVBL
WISC RAPIDS    CLOUDY    17  10  74 NW8       30.29S WCI   7
CAMP DOUGLAS   FLURRIES  19  19 100 NW10      30.30R WCI   8
$$

WIZ011>013-019>022-031-037>040-048>050-271100-
NORTHEAST WISCONSIN

CITY           SKY/WX    TMP DP  RH WIND       PRES   REMARKS
ANTIGO         MOCLDY    12   9  85 NW9       30.22R WCI   0
SHAWANO        CLOUDY    24  19  80 NW7       30.24S WCI  16
OCONTO         CLOUDY    21  17  83 N7        30.24R WCI  12
STURGEON BAY   CLOUDY    23  18  80 N17       30.21R WCI   9
GREEN BAY      FLURRIES  24  18  77 NW7       30.24R WCI  16
MANITOWOC      NOT AVBL
APPLETON       CLOUDY    23  19  86 NW8       30.23S WCI  14
CLINTONVILLE   CLOUDY    23  18  80 NW8       30.24R WCI  14
OSHKOSH        CLOUDY    22  18  85 MISG      30.23S
$$

WIZ032>034-041-042-053>061-271100-
SOUTHWEST WISCONSIN

CITY           SKY/WX    TMP DP  RH WIND       PRES   REMARKS
LA CROSSE      CLOUDY    20  13  74 N12       30.36R WCI   8
SPARTA         FLURRIES  19  14  81 NW9       30.33S WCI   8
VIROQUA        CLOUDY    19  15  83 NW15      30.28R WCI   5
BOSCOBEL       CLOUDY    25  17  72 NW6       30.33R WCI  18
PRAIRIE DU CHI CLOUDY    23  17  77 NW9       30.33R WCI  13
PLATTEVILLE    CLOUDY    24  21  88 CALM      30.29S
$$

WIZ056-057-062-063-064-067-068-271100-
SOUTH CENTRAL WISCONSIN

CITY           SKY/WX    TMP DP  RH WIND       PRES   REMARKS
REEDSBURG      LGT SNOW  22  19  88 NW8       30.27S WCI  13
BARABOO/DELLS  LGT SNOW  22  19  87 N7        30.26S WCI  14
LONE ROCK      LGT SNOW  27  18  69 NW10      30.30R WCI  17
MINERAL POINT  LGT SNOW  25  21  86 NW8       30.26S WCI  16
MADISON        CLOUDY    23  18  81 NW7       30.26S WCI  15
MIDDLETON      CLOUDY    24  21  87 NW5       30.26S WCI  18
WATERTOWN      CLOUDY    21  20  96 NW5       30.24S WCI  14
MONROE         CLOUDY    23  21  93 NW8       30.25S WCI  14
JANESVILLE     MOCLDY    21  19  93 NW7       30.25R FOG     WCI  13
$$

WIZ051-052-058>065-066-070>072-271100-
SOUTHEAST WISCONSIN

CITY           SKY/WX    TMP DP  RH WIND       PRES   REMARKS
MILWAUKEE      LGT SNOW  24  19  81 NW9       30.22S WCI  14
WAUKESHA       MOCLDY    19  19 100 NW9       30.23R FOG     WCI   9
MILWAUKEE/TIMM FLURRIES  23  19  86 NW8       30.23S WCI  14
RACINE         LGT SNOW  23  19  85 NW9       30.24R FOG     WCI  13
BURLINGTON     LGT SNOW  20  18  91 NW9       30.23R WCI  10
KENOSHA        LGT SNOW  22  18  85 NW10      30.22S FOG     WCI  11
FOND DU LAC    CLOUDY    22  18  85 NW10      30.23S WCI  11
SHEBOYGAN      CLOUDY    23  19  85 NW10      30.21S WCI  12
WEST BEND      CLOUDY    23  19  86 NW8       30.22R WCI  14
JUNEAU         CLOUDY    21  19  89 NW6       30.24S WCI  14
$$

LSZ147-162-271100-
LAKE SUPERIOR

STATION/POSITION TIME  TEMP    WIND        PRES    WAVE
                       AIR SEA DIR/SP/G            HT/PER
                 (UTC) (F)     (DEG/KT/KT) (MB)    (FT/S)
DEVILS ISLAND    0900    8      10/ 18/ 20 1031.5R
PORT WING        0940    8     330/  8/ 12 1030.5R
SAXON HARBOR     0900   15     330/ 12/ 16 1028.4S
$$

LMZ867-665-643>646-271100-
LAKE MICHIGAN

STATION/POSITION TIME  TEMP    WIND        PRES    WAVE
                       AIR SEA DIR/SP/G            HT/PER
                 (UTC) (F)     (DEG/KT/KT) (MB)    (FT/S)
CHAMBERS ISLAND  0900   25     330/ 18/ 24 1023.4R
N MID LAKE BUOY  0850   28 42  350/ 23/ 27 1022.1R   3/ 4
NORTHPORT PIER   0905   27     350/ 22     1022.7R
SISTER BAY       0858          360/ 25/ 27   N/A
KEWAUNEE LAKESHO 0900   25     330/  9/ 13 1021.9R
SHEBOYGAN LAKESH 0900   24 35  300/ 10/ 11 1024.3R
PORT WASHINGTON  0940   24     310/  5/  9 1024.0S
MILWAUKEE LAKESH 0900   24     310/  9/ 13   N/A
S MID LAKE BUOY  0850   32 42  320/ 17/ 21 1022.3S   4/ 5
KENOSHA   LAKESH 0900   21     300/ 10/ 17 1023.4R
$$

TC  - TEMPERATURE IN CELSIUS
VSB - VISIBILITY IN STATUTE MILES
WCI - WIND CHILL INDEX
HX  - HEAT INDEX



USA.gov is the U.S. government's official web portal to all federal, state and local government web resources and services.